N7QMJ Weather Reports


time (UTC)temp
F
wind
direction
speed
knots
gust
knots
rain 1hr
in
rain 24hr
in
rain mn
in
humidity
%
barometer
mb
20260506015633 68 269 2.6 7.8 0.00 0.15 0.00 44 1010.7
20260506015135 68 307 0.0 5.2 0.00 0.17 0.00 42 1010.8
20260506014634 69 289 0.0 10.4 0.00 0.19 0.00 41 1010.7
20260506014134 69 298 0.0 10.4 0.00 0.20 0.00 42 1010.6
20260506013635 69 288 1.7 5.2 0.00 0.24 0.00 41 1010.6
20260506013134 69 289 1.7 6.1 0.00 0.26 0.00 41 1010.7
20260506012634 69 312 0.9 6.1 0.00 0.29 0.00 41 1010.7
20260506012146 69 337 0.0 4.3 0.00 0.30 0.00 40 1010.7
20260506012133 69 290 0.0 4.3 0.00 0.30 0.00 39 1010.7
20260506011758 69 300 0.0 0.0 0.00 0.30 0.00 41 1010.7
20260506010643 68 293 0.0 0.0 0.00 0.31 0.00 42 1010.7
20260506010632 68 155 0.0 0.0 0.00 0.31 0.00 42 1010.7
20260506005633 67 293 0.0 0.0 0.00 0.31 0.00 43 1010.8
20260506005133 67 337 0.0 0.0 0.00 0.31 0.00 42 1010.7
20260506004633 68 345 0.0 0.0 0.00 0.31 0.00 41 1010.7
20260506004134 69 337 0.0 0.0 0.00 0.31 0.00 39 1010.7
20260506003633 69 305 0.0 0.0 0.00 0.31 0.00 38 1010.7
20260506003132 70 319 0.0 0.0 0.00 0.31 0.00 36 1010.7
20260506002633 70 323 0.0 0.0 0.00 0.31 0.00 37 1010.6
20260506002143 71 49 0.0 0.0 0.00 0.31 0.00 37 1010.7
20260506002133 70 78 0.0 0.0 0.00 0.31 0.00 37 1010.7
20260506001130 71 286 0.0 0.0 0.00 0.31 0.00 38 1010.6
20260506000630 71 58 0.0 0.0 0.00 0.31 0.00 38 1010.7
20260506000133 71 85 0.0 0.0 0.00 0.31 0.00 40 1010.6
20260505235630 71 42 0.0 0.0 0.00 0.31 0.00 41 1010.6
20260505235130 71 69 0.0 0.0 0.00 0.31 0.00 38 1010.8
20260505234631 70 111 0.0 0.0 0.00 0.31 0.00 41 1010.7
20260505234142 71 111 0.0 0.0 0.00 0.31 0.00 40 1010.8
20260505234131 71 123 0.0 0.0 0.00 0.31 0.00 40 1010.7
20260505233131 71 107 0.0 0.0 0.00 0.31 0.00 40 1010.8
20260505232630 71 65 0.0 0.0 0.00 0.31 0.00 41 1010.8
20260505232141 71 158 0.0 0.0 0.00 0.31 0.00 39 1010.8
20260505232130 71 0 0.0 0.0 0.00 0.31 0.00 39 1010.8
20260505231131 71 138 0.0 0.0 0.00 0.31 0.00 41 1010.8
20260505230642 71 165 0.0 0.9 0.00 0.31 0.00 42 1010.8
20260505230630 71 264 0.0 0.0 0.00 0.31 0.00 40 1010.8
20260505225630 70 159 0.0 0.9 0.00 0.31 0.00 42 1010.9
20260505225129 70 159 0.0 0.0 0.00 0.31 0.00 43 1010.9
20260505224630 70 166 0.0 0.0 0.00 0.31 0.00 42 1011.0
20260505224130 70 147 0.0 0.0 0.00 0.31 0.00 42 1011.0
20260505223629 69 299 0.0 0.0 0.00 0.31 0.00 43 1011.2
20260505223129 69 313 0.0 0.0 0.00 0.31 0.00 44 1011.2
20260505222628 69 295 0.0 0.0 0.00 0.35 0.00 43 1011.2
20260505222130 69 293 0.0 0.0 0.00 0.38 0.00 46 1011.3
20260505221628 68 196 0.0 0.0 0.00 0.45 0.00 45 1011.3
20260505221127 68 169 0.0 0.0 0.00 0.45 0.00 48 1011.4
20260505220628 68 209 0.0 0.0 0.00 0.45 0.00 47 1011.4
20260505220130 68 195 0.0 0.9 0.00 0.45 0.00 44 1011.5
20260505215629 69 202 0.0 0.9 0.00 0.47 0.00 44 1011.6
20260505215128 69 200 0.0 0.9 0.00 0.49 0.00 45 1011.6
20260505214639 69 83 0.0 1.7 0.00 0.49 0.00 46 1011.7
20260505214628 69 120 0.0 1.7 0.00 0.49 0.00 45 1011.6
20260505214254 69 158 0.0 0.9 0.00 0.49 0.00 45 1011.7
20260505213126 69 80 0.0 0.9 0.00 0.49 0.00 46 1011.7
20260505212627 68 140 0.0 0.9 0.00 0.49 0.00 48 1011.7
20260505212128 68 90 0.0 1.7 0.00 0.49 0.00 47 1011.7
20260505211626 68 206 0.0 1.7 0.00 0.49 0.00 49 1011.7
20260505211127 67 128 0.0 0.0 0.00 0.49 0.00 49 1011.7
20260505210628 67 152 0.0 0.0 0.00 0.49 0.00 50 1011.9
20260505210137 66 227 0.0 0.0 0.00 0.49 0.00 52 1011.9
20260505210125 67 159 0.0 0.0 0.00 0.49 0.00 52 1011.9
20260505205128 65 257 0.0 0.0 0.00 0.49 0.00 54 1011.9
20260505204628 64 257 0.0 0.0 0.00 0.49 0.00 54 1012.0
20260505204126 64 224 0.0 0.0 0.00 0.49 0.00 54 1012.0
20260505203626 64 358 0.0 0.0 0.00 0.49 0.00 54 1012.1
20260505203127 64 358 0.0 0.0 0.00 0.49 0.00 55 1012.2
20260505202624 65 27 0.0 0.0 0.00 0.49 0.00 55 1012.2
20260505202124 65 25 0.0 0.0 0.00 0.49 0.00 55 1012.1
20260505201625 65 0 0.0 0.0 0.00 0.49 0.00 55 1012.2
20260505201133 64 240 0.0 0.0 0.00 0.49 0.00 53 1012.2
20260505201124 64 0 0.0 0.0 0.00 0.49 0.00 53 1012.1
20260505200739 64 240 0.0 0.0 0.00 0.49 0.00 53 1012.2
20260505195624 63 244 0.0 0.0 0.00 0.49 0.00 55 1012.2
20260505195123 63 245 0.0 0.0 0.00 0.49 0.00 55 1012.4
20260505194625 63 0.0 0.0 0.00 0.49 0.00 59 1012.3
20260505194132 62 221 0.0 0.0 0.00 0.49 0.00 62 1012.3
20260505194124 62 0.0 0.0 0.00 0.49 0.00 62 1012.3
20260505193121 61 221 0.0 0.0 0.00 0.49 0.00 62 1012.4
20260505192625 61 0.0 0.0 0.00 0.49 0.00 62 1012.3
20260505192123 61 233 0.0 0.0 0.00 0.49 0.00 62 1012.4
20260505191622 61 233 0.0 4.3 0.00 0.49 0.00 60 1012.3
20260505191121 62 257 0.0 4.3 0.00 0.49 0.00 60 1012.4
20260505190620 62 228 0.0 4.3 0.00 0.49 0.00 65 1012.3
20260505190121 61 159 0.0 3.5 0.00 0.49 0.00 66 1012.3
20260505185621 60 252 0.0 3.5 0.00 0.49 0.00 67 1012.3
20260505185120 59 240 0.9 3.5 0.00 0.49 0.00 66 1012.3
20260505184619 58 243 0.0 0.0 0.00 0.49 0.00 71 1012.3
20260505184120 58 274 0.0 3.5 0.00 0.49 0.00 68 1012.4
20260505183619 58 250 0.9 4.3 0.00 0.49 0.00 69 1012.3
20260505183121 58 231 0.0 4.3 0.00 0.49 0.00 68 1012.2
20260505182619 58 238 0.0 4.3 0.00 0.49 0.00 68 1012.3
20260505182119 57 254 0.9 6.1 0.00 0.49 0.00 70 1012.3
20260505181621 57 231 1.7 6.1 0.00 0.49 0.00 68 1012.3
20260505181120 57 217 0.0 5.2 0.00 0.49 0.00 70 1012.2
20260505180620 57 251 0.0 5.2 0.00 0.49 0.00 69 1012.2
20260505180133 57 264 0.9 8.7 0.00 0.49 0.00 74 1012.2
20260505180121 58 233 0.0 6.1 0.00 0.49 0.00 70 1012.2
20260505175620 58 240 1.7 6.1 0.00 0.49 0.00 72 1012.2
20260505174619 56 251 2.6 8.7 0.00 0.49 0.00 74 1012.0
20260505174120 55 248 0.0 8.7 0.00 0.49 0.00 75 1012.1
20260505173618 54 237 2.6 8.7 0.00 0.49 0.00 78 1012.0
20260505173118 54 228 2.6 7.8 0.00 0.49 0.00 77 1011.9
20260505172619 53 240 1.7 7.8 0.00 0.49 0.00 78 1011.9
20260505172118 53 220 4.3 8.7 0.00 0.49 0.00 79 1011.9
20260505171617 52 255 2.6 8.7 0.00 0.49 0.00 79 1011.9
20260505171119 52 234 1.7 7.8 0.00 0.49 0.00 79 1012.0
20260505170617 52 0 3.5 7.8 0.00 0.49 0.00 78 1012.0
20260505170118 52 275 0.0 8.7 0.00 0.49 0.00 78 1012.0
20260505165617 52 231 3.5 10.4 0.00 0.49 0.00 79 1011.9
20260505165116 52 238 2.6 10.4 0.00 0.49 0.00 81 1011.9
20260505164627 51 245 3.5 8.7 0.00 0.49 0.00 82 1011.7
20260505164617 52 259 0.9 8.7 0.00 0.49 0.00 79 1011.9
20260505164245 51 259 3.5 8.7 0.00 0.49 0.00 82 1011.9
20260505163118 51 281 3.5 10.4 0.00 0.49 0.00 83 1011.9
20260505162617 50 274 2.6 11.3 0.00 0.49 0.00 84 1011.7
20260505162116 50 230 4.3 11.3 0.00 0.49 0.00 84 1011.7
20260505161615 50 241 2.6 8.7 0.00 0.49 0.00 84 1011.7
20260505161116 50 266 4.3 10.4 0.00 0.49 0.00 85 1011.6
20260505160616 49 238 1.7 10.4 0.00 0.49 0.00 85 1011.6
20260505160116 49 257 1.7 9.6 0.00 0.49 0.00 86 1011.5
20260505153118 47 233 0.0 9.6 0.00 0.49 0.00 88 1011.3
20260505152615 47 250 1.7 11.3 0.00 0.49 0.00 88 1011.2
20260505152116 47 244 7.8 11.3 0.00 0.49 0.00 88 1011.2
20260505151616 46 238 1.7 9.6 0.00 0.49 0.00 88 1011.2
20260505151116 46 264 1.7 10.4 0.00 0.49 0.00 88 1011.2
20260505150615 46 241 3.5 10.4 0.00 0.49 0.00 88 1011.2
20260505150116 46 274 4.3 10.4 0.00 0.49 0.00 88 1011.0
20260505140618 45 268 4.3 12.2 0.00 0.49 0.00 89 1010.3
20260505140114 45 250 7.0 11.3 0.00 0.49 0.00 89 1010.3
20260505130112 44 261 7.0 13.9 0.00 0.49 0.00 88 1009.6
20260505124622 44 230 7.0 13.9 0.00 0.49 0.00 88 1009.6
20260505124611 44 231 7.0 13.9 0.00 0.49 0.00 88 1009.6
20260505123609 44 264 8.7 13.9 0.00 0.49 0.00 88 1009.5
20260505123121 44 252 7.0 11.3 0.00 0.49 0.00 89 1009.5
20260505123110 44 261 8.7 13.9 0.00 0.49 0.00 89 1009.6
20260505122113 44 247 6.1 10.4 0.00 0.49 0.00 89 1009.6
20260505121613 44 252 5.2 10.4 0.00 0.49 0.00 89 1009.6
20260505121110 44 258 7.0 10.4 0.00 0.49 0.00 89 1009.6
20260505120610 44 247 5.2 12.2 0.00 0.49 0.00 89 1009.6
20260505120112 44 252 7.8 13.0 0.00 0.49 0.00 89 1009.6
20260505115611 44 238 7.8 13.9 0.00 0.49 0.00 89 1009.5
20260505115110 44 258 7.8 13.9 0.00 0.49 0.00 89 1009.5
20260505114610 44 252 4.3 9.6 0.00 0.49 0.00 89 1009.4
20260505114112 43 252 4.3 14.8 0.00 0.49 0.00 89 1009.5
20260505113609 43 247 7.8 14.8 0.00 0.49 0.00 89 1009.4
20260505113110 43 259 8.7 13.0 0.00 0.49 0.00 89 1009.4
20260505112625 44 261 6.1 13.9 0.00 0.49 0.00 89 1009.6
20260505112608 43 264 7.8 14.8 0.00 0.49 0.00 89 1009.4
20260505112110 44 244 9.6 14.8 0.00 0.49 0.00 89 1009.4
20260505111737 44 279 8.7 13.9 0.00 0.49 0.00 89 1009.4
20260505110619 43 274 5.2 12.2 0.00 0.49 0.00 89 1009.6
20260505110609 44 261 6.1 12.2 0.00 0.49 0.00 89 1009.5
20260505102108 43 231 7.8 12.2 0.00 0.49 0.00 88 1009.8
20260505101607 43 254 7.8 13.0 0.00 0.49 0.00 88 1010.0
20260505101107 43 257 7.8 14.8 0.00 0.49 0.00 88 1009.9
20260505100607 43 259 9.6 14.8 0.00 0.49 0.00 88 1010.0
20260505100108 43 217 7.8 13.9 0.00 0.49 0.00 88 1009.8
20260505095608 43 252 8.7 13.9 0.00 0.49 0.00 88 1009.9
20260505095108 43 244 6.1 13.9 0.00 0.49 0.00 88 1009.8
20260505094608 43 255 7.0 11.3 0.00 0.49 0.00 88 1009.9
20260505094109 43 258 7.0 12.2 0.00 0.49 0.00 88 1009.9
20260505093606 43 252 7.8 13.0 0.00 0.49 0.00 88 1009.8
20260505093109 43 250 9.6 16.5 0.00 0.49 0.00 88 1009.9
20260505092606 43 252 11.3 16.5 0.00 0.49 0.00 88 1009.9
20260505092106 43 275 9.6 14.8 0.00 0.49 0.00 88 1009.9
20260505091606 43 248 9.6 15.6 0.00 0.49 0.00 88 1009.8
20260505091117 42 244 9.6 15.6 0.00 0.49 0.00 88 1009.8
20260505091106 43 269 9.6 15.6 0.00 0.49 0.00 88 1009.6
20260505090722 43 251 8.7 13.0 0.00 0.49 0.00 88 1010.1
20260505090105 43 275 11.3 15.6 0.00 0.49 0.00 88 1010.0
20260505085106 43 271 7.8 14.8 0.00 0.49 0.00 88 1010.1
20260505084604 43 275 7.8 15.6 0.00 0.49 0.00 88 1010.1
20260505084104 43 252 8.7 15.6 0.00 0.49 0.00 89 1010.1
20260505083605 43 241 11.3 14.8 0.00 0.49 0.00 88 1010.3
20260505083104 43 262 10.4 14.8 0.00 0.49 0.00 88 1010.3
20260505082605 42 258 10.4 14.8 0.00 0.49 0.00 88 1010.3
20260505082104 42 251 7.0 11.3 0.00 0.49 0.00 88 1010.5
20260505081606 42 241 3.5 10.4 0.00 0.49 0.00 88 1010.6
20260505081106 42 265 3.5 9.6 0.00 0.49 0.00 88 1010.5
20260505080605 43 240 5.2 11.3 0.00 0.49 0.00 88 1010.6
20260505080104 43 238 5.2 11.3 0.00 0.49 0.00 88 1010.7
20260505075603 43 250 7.0 10.4 0.00 0.49 0.00 88 1010.7
20260505075105 43 250 4.3 11.3 0.00 0.49 0.00 88 1010.7
20260505074604 43 240 7.8 11.3 0.00 0.49 0.00 88 1010.6
20260505074104 43 252 6.1 11.3 0.00 0.49 0.00 87 1010.7
20260505073605 43 231 7.8 11.3 0.00 0.49 0.00 87 1010.8
20260505073104 43 271 0.0 6.1 0.00 0.49 0.00 87 1010.9
20260505072603 44 283 0.0 12.2 0.00 0.49 0.00 87 1010.7
20260505072105 44 252 5.2 14.8 0.00 0.49 0.00 86 1010.9
20260505071603 44 243 11.3 14.8 0.00 0.49 0.00 86 1010.6
20260505071105 44 0 7.8 14.8 0.00 0.49 0.00 86 1010.3
20260505070604 44 252 7.8 13.9 0.00 0.49 0.00 87 1010.2
20260505070104 44 264 7.8 13.0 0.00 0.49 0.00 87 1010.1
20260505065603 44 240 7.0 13.0 0.00 0.49 0.49 87 1010.2
20260505065104 44 268 3.5 9.6 0.00 0.49 0.49 87 1010.2
20260505064602 44 265 1.7 13.0 0.00 0.49 0.49 87 1010.3
20260505064102 44 275 5.2 15.6 0.00 0.49 0.49 87 1010.2
20260505063604 44 269 9.6 15.6 0.01 0.49 0.49 87 1009.8
20260505063103 44 271 8.7 17.4 0.01 0.49 0.49 87 1009.6
20260505062601 44 274 11.3 17.4 0.01 0.49 0.49 87 1009.5
20260505062102 44 234 7.0 17.4 0.01 0.49 0.49 87 1009.5
20260505061610 44 233 11.3 19.1 0.02 0.49 0.49 87 1009.5
20260505061602 44 271 10.4 19.1 0.02 0.49 0.49 87 1009.5
20260505060601 44 231 10.4 17.4 0.02 0.49 0.49 87 1009.4
20260505060101 44 243 11.3 19.1 0.02 0.49 0.49 87 1009.5
20260505055600 44 269 10.4 20.0 0.02 0.49 0.49 87 1009.6
20260505055102 44 251 14.8 20.0 0.03 0.49 0.49 88 1009.8
20260505054602 44 279 12.2 19.1 0.04 0.49 0.49 88 1009.9
20260505054113 44 250 11.3 19.1 0.03 0.48 0.48 88 1010.0
20260505054101 44 241 13.0 19.1 0.04 0.49 0.49 88 1009.8
20260505053727 44 274 13.0 22.6 0.03 0.48 0.48 88 1010.1
20260505052601 44 264 13.9 22.6 0.04 0.48 0.48 88 1010.2
20260505052059 45 243 15.6 22.6 0.04 0.48 0.48 88 1010.3
20260505051600 45 254 14.8 20.9 0.03 0.47 0.47 88 1010.2
20260505051101 45 264 11.3 20.0 0.03 0.47 0.47 88 1010.6
20260505050609 45 266 14.8 20.0 0.03 0.47 0.47 89 1010.3
20260505050559 45 248 13.9 20.0 0.03 0.47 0.47 88 1010.6
20260505041059 44 264 9.6 17.4 0.05 0.44 0.44 88 1010.2
20260505040557 44 250 11.3 17.4 0.05 0.44 0.44 87 1010.1
20260505040058 44 231 10.4 19.1 0.05 0.44 0.44 86 1010.1
20260505035559 45 231 10.4 19.1 0.04 0.43 0.43 86 1010.1
20260505035059 45 251 12.2 16.5 0.03 0.43 0.43 86 1010.1
20260505034558 45 265 8.7 13.0 0.02 0.41 0.41 85 1010.5
20260505034100 46 257 9.6 14.8 0.02 0.41 0.41 85 1010.5
20260505033557 46 244 8.7 14.8 0.01 0.40 0.40 85 1010.2
20260505033059 46 259 9.6 13.9 0.01 0.40 0.40 84 1010.0
20260505032556 46 259 6.1 12.2 0.01 0.40 0.40 84 1009.9
20260505032057 46 241 7.0 12.2 0.01 0.40 0.40 83 1009.9
20260505031556 46 248 7.8 13.9 0.01 0.39 0.39 84 1009.5
20260505031057 46 261 9.6 13.9 0.02 0.39 0.39 84 1009.4
20260505030610 46 250 7.0 18.2 0.04 0.39 0.39 85 1009.2
20260505030558 46 227 7.8 13.0 0.03 0.39 0.39 85 1009.2
20260505025556 46 235 11.3 20.9 0.06 0.39 0.39 85 1009.2
20260505025058 46 248 11.3 22.6 0.08 0.39 0.39 86 1008.8
20260505024556 45 237 17.4 25.2 0.09 0.39 0.39 86 1008.2
20260505024055 45 230 18.2 25.2 0.13 0.39 0.39 87 1008.6
20260505023556 44 213 16.5 22.6 0.15 0.39 0.39 87 1009.1
20260505023056 44 228 13.0 22.6 0.17 0.39 0.39 87 1009.4
20260505022556 44 223 12.2 22.6 0.20 0.39 0.39 87 1009.4
20260505022058 44 226 14.8 20.0 0.20 0.39 0.39 86 1009.3
20260505021556 44 221 13.0 22.6 0.20 0.39 0.39 86 1009.4
20260505021056 45 221 13.0 22.6 0.19 0.38 0.38 85 1009.4
20260505020555 45 240 10.4 23.5 0.18 0.36 0.36 85 1009.6